| time (UTC) | temp F | wind direction | speed MPH | gust MPH | rain 1hr in | rain 24hr in | rain mn in | humidity % | barometer mb |
| 20260506061554 | 40 | 311 | 4.0 | 9.0 | 0.00 | 0.00 | 0.00 | 54 | 1015.5 |
| 20260506044524 | 40 | 318 | 3.0 | 6.0 | 0.00 | 0.00 | 0.00 | 52 | 1014.8 |
| 20260506043024 | 41 | 321 | 0.0 | 3.0 | 0.00 | 0.00 | 0.00 | 50 | 1014.7 |
| 20260506041524 | 41 | 325 | 2.0 | 6.0 | 0.00 | 0.00 | 0.00 | 50 | 1014.7 |
| 20260506040024 | 42 | 322 | 1.0 | 5.0 | 0.00 | 0.00 | 0.00 | 50 | 1014.7 |
| 20260506034524 | 42 | 319 | 3.0 | 5.0 | 0.00 | 0.00 | 0.00 | 48 | 1014.7 |
| 20260506033022 | 43 | 328 | 1.0 | 6.0 | 0.00 | 0.00 | 0.00 | 47 | 1014.7 |
| 20260506031521 | 43 | 318 | 2.0 | 5.0 | 0.00 | 0.00 | 0.00 | 47 | 1014.6 |
| 20260506030020 | 44 | 321 | 3.0 | 6.0 | 0.00 | 0.00 | 0.00 | 46 | 1014.5 |
| 20260506024518 | 45 | 326 | 3.0 | 6.0 | 0.00 | 0.00 | 0.00 | 44 | 1014.3 |
| 20260506023015 | 45 | 335 | 3.0 | 10.0 | 0.00 | 0.00 | 0.00 | 44 | 1014.1 |
| 20260506021514 | 46 | 318 | 4.0 | 8.0 | 0.00 | 0.00 | 0.00 | 44 | 1013.9 |
| 20260506020023 | 47 | 342 | 5.0 | 9.0 | 0.00 | 0.00 | 0.00 | 42 | 1013.6 |
| 20260506014511 | 47 | 301 | 4.0 | 10.0 | 0.00 | 0.00 | 0.00 | 40 | 1013.5 |
| 20260506013009 | 48 | 302 | 6.0 | 13.0 | 0.00 | 0.00 | 0.00 | 40 | 1013.2 |
| 20260506011507 | 48 | 324 | 5.0 | 11.0 | 0.00 | 0.00 | 0.00 | 39 | 1013.0 |
| 20260506010006 | 49 | 310 | 6.0 | 11.0 | 0.00 | 0.00 | 0.00 | 38 | 1012.9 |
| 20260506004514 | 49 | 310 | 8.0 | 14.0 | 0.00 | 0.00 | 0.00 | 38 | 1012.9 |
| 20260506003004 | 49 | 304 | 7.0 | 13.0 | 0.00 | 0.00 | 0.00 | 39 | 1012.7 |
| 20260506001504 | 50 | 309 | 7.0 | 13.0 | 0.00 | 0.00 | 0.00 | 38 | 1012.6 |
| 20260506000002 | 49 | 327 | 7.0 | 13.0 | 0.00 | 0.00 | 0.00 | 39 | 1012.5 |
| 20260505234501 | 49 | 302 | 7.0 | 16.0 | 0.00 | 0.00 | 0.00 | 40 | 1012.6 |
| 20260505233100 | 49 | 313 | 9.0 | 14.0 | 0.00 | 0.00 | 0.00 | 40 | 1012.5 |
| 20260505231601 | 50 | 315 | 9.0 | 18.0 | 0.00 | 0.00 | 0.00 | 39 | 1012.5 |
| 20260505230059 | 50 | 9 | 8.0 | 19.0 | 0.00 | 0.00 | 0.00 | 41 | 1012.3 |
| 20260505224559 | 50 | 331 | 7.0 | 16.0 | 0.00 | 0.00 | 0.00 | 39 | 1012.4 |
| 20260505223104 | 51 | 302 | 6.0 | 17.0 | 0.00 | 0.00 | 0.00 | 41 | 1012.4 |
| 20260505221601 | 51 | 284 | 9.0 | 14.0 | 0.00 | 0.00 | 0.00 | 41 | 1012.5 |
| 20260505220107 | 51 | 308 | 8.0 | 18.0 | 0.00 | 0.00 | 0.00 | 39 | 1012.4 |
| 20260505214605 | 51 | 291 | 7.0 | 22.0 | 0.00 | 0.00 | 0.00 | 40 | 1012.2 |
| 20260505213055 | 51 | 304 | 12.0 | 17.0 | 0.00 | 0.00 | 0.00 | 40 | 1012.3 |
| 20260505211631 | 51 | 298 | 10.0 | 14.0 | 0.00 | 0.00 | 0.00 | 42 | 1012.3 |
| 20260505210054 | 51 | 318 | 8.0 | 19.0 | 0.00 | 0.00 | 0.00 | 43 | 1012.3 |
| 20260505204603 | 51 | 287 | 11.0 | 19.0 | 0.00 | 0.00 | 0.00 | 41 | 1012.3 |
| 20260505203055 | 50 | 275 | 11.0 | 18.0 | 0.00 | 0.00 | 0.00 | 45 | 1012.5 |
| 20260505201552 | 51 | 311 | 7.0 | 18.0 | 0.00 | 0.00 | 0.00 | 42 | 1012.6 |
| 20260505200052 | 51 | 299 | 10.0 | 19.0 | 0.00 | 0.00 | 0.00 | 44 | 1012.6 |
| 20260505194550 | 50 | 272 | 11.0 | 15.0 | 0.00 | 0.00 | 0.00 | 45 | 1012.7 |
| 20260505193049 | 50 | 300 | 7.0 | 16.0 | 0.00 | 0.00 | 0.00 | 44 | 1012.7 |
| 20260505191549 | 50 | 343 | 8.0 | 16.0 | 0.00 | 0.00 | 0.00 | 44 | 1012.8 |
| 20260505190048 | 50 | 272 | 12.0 | 17.0 | 0.00 | 0.00 | 0.00 | 41 | 1012.8 |
| 20260505184547 | 51 | 294 | 10.0 | 19.0 | 0.00 | 0.00 | 0.00 | 46 | 1012.8 |
| 20260505183047 | 52 | 314 | 12.0 | 20.0 | 0.00 | 0.00 | 0.00 | 44 | 1012.8 |
| 20260505181605 | 50 | 302 | 10.0 | 17.0 | 0.00 | 0.00 | 0.00 | 44 | 1012.9 |
| 20260505180052 | 50 | 294 | 11.0 | 19.0 | 0.00 | 0.00 | 0.00 | 45 | 1012.8 |
| 20260505174543 | 49 | 355 | 6.0 | 17.0 | 0.00 | 0.00 | 0.00 | 46 | 1012.8 |
| 20260505173037 | 49 | 286 | 15.0 | 20.0 | 0.00 | 0.00 | 0.00 | 43 | 1012.8 |
| 20260505171540 | 49 | 300 | 10.0 | 19.0 | 0.00 | 0.00 | 0.00 | 45 | 1012.8 |
| 20260505170035 | 48 | 307 | 8.0 | 16.0 | 0.00 | 0.00 | 0.00 | 42 | 1012.5 |
| 20260505164535 | 48 | 296 | 10.0 | 17.0 | 0.00 | 0.00 | 0.00 | 43 | 1012.5 |
| 20260505163033 | 48 | 316 | 10.0 | 21.0 | 0.00 | 0.00 | 0.00 | 43 | 1012.6 |
| 20260505161533 | 49 | 290 | 11.0 | 19.0 | 0.00 | 0.00 | 0.00 | 43 | 1012.6 |
| 20260505153035 | 47 | 298 | 7.0 | 16.0 | 0.00 | 0.00 | 0.00 | 48 | 1012.5 |
| 20260505151523 | 47 | 344 | 7.0 | 15.0 | 0.00 | 0.00 | 0.00 | 48 | 1012.3 |
| 20260505124554 | 41 | 288 | 3.0 | 7.0 | 0.00 | 0.00 | 0.00 | 60 | 1011.7 |
| 20260505123054 | 40 | 297 | 3.0 | 5.0 | 0.00 | 0.00 | 0.00 | 64 | 1011.4 |
| 20260505121544 | 38 | 307 | 2.0 | 4.0 | 0.00 | 0.00 | 0.00 | 67 | 1011.2 |
| 20260505114535 | 34 | 307 | 0.0 | 0.0 | 0.00 | 0.00 | 0.00 | 72 | 1010.9 |
| 20260505113032 | 33 | 307 | 0.0 | 2.0 | 0.00 | 0.00 | 0.00 | 73 | 1010.7 |
| 20260505111534 | 32 | 307 | 0.0 | 0.0 | 0.00 | 0.00 | 0.00 | 74 | 1010.4 |
| 20260505101512 | 37 | 307 | 0.0 | 3.0 | 0.00 | 0.00 | 0.00 | 61 | 1009.5 |
| 20260505100011 | 38 | 307 | 2.0 | 3.0 | 0.00 | 0.00 | 0.00 | 62 | 1009.3 |
| 20260505094505 | 39 | 307 | 1.0 | 4.0 | 0.00 | 0.00 | 0.00 | 59 | 1009.2 |
| 20260505093002 | 40 | 308 | 2.0 | 6.0 | 0.00 | 0.00 | 0.00 | 58 | 1009.1 |
| 20260505091600 | 40 | 315 | 3.0 | 8.0 | 0.00 | 0.00 | 0.00 | 57 | 1008.9 |
| 20260505090058 | 41 | 317 | 3.0 | 6.0 | 0.00 | 0.00 | 0.00 | 57 | 1008.8 |
| 20260505084601 | 41 | 306 | 3.0 | 8.0 | 0.00 | 0.00 | 0.00 | 55 | 1008.7 |
| 20260505083104 | 41 | 320 | 2.0 | 8.0 | 0.00 | 0.00 | 0.00 | 56 | 1008.6 |
| 20260505081547 | 42 | 300 | 3.0 | 8.0 | 0.00 | 0.00 | 0.00 | 54 | 1008.5 |
| 20260505080044 | 43 | 300 | 4.0 | 6.0 | 0.00 | 0.00 | 0.00 | 53 | 1008.6 |
| 20260505074541 | 43 | 302 | 3.0 | 8.0 | 0.00 | 0.00 | 0.00 | 51 | 1008.3 |
| 20260505073037 | 44 | 304 | 4.0 | 10.0 | 0.00 | 0.00 | 0.00 | 50 | 1008.1 |
| 20260505071534 | 44 | 306 | 5.0 | 9.0 | 0.00 | 0.00 | 0.00 | 50 | 1008.1 |